Location: Bayou Vista
(29.6905°N, 91.2709°W)
Time: 14:14:07
(UTC+00:00)

Envisat - Visible Passes

Search period start: 23 July 2024 00:00
Search period end: 02 August 2024 00:00
Orbit: 762 x 764 km, 98.3° (Epoch: 23 July)

Date Brightness Start Highest point End Pass type
(mag) Time Alt. Az. Time Alt. Az. Time Alt. Az.
23 Jul 4.9 08:17:24 10° NE 08:21:14 21° E 08:21:57 21° ESE visible
23 Jul 3.9 09:55:41 10° N 10:00:08 32° WNW 10:02:06 24° WSW visible
24 Jul 2.9 09:17:50 10° N 09:22:55 81° WNW 09:24:12 51° SSW visible
25 Jul 4.0 08:40:47 10° NNE 08:45:31 39° E 08:46:19 36° ESE visible
25 Jul 4.6 10:20:46 10° NNW 10:24:07 18° WNW 10:26:28 13° W visible
26 Jul 5.3 08:05:01 10° ENE 08:07:57 15° E 08:08:24 15° E visible
26 Jul 3.4 09:42:13 10° N 09:47:01 44° WNW 09:48:33 34° WSW visible
27 Jul 3.0 09:04:39 10° NNE 09:09:44 73° ESE 09:10:39 57° SSE visible
28 Jul 4.5 08:27:55 10° NE 08:32:16 28° E 08:32:46 28° ESE visible
28 Jul 4.2 10:07:00 10° NNW 10:11:01 24° WNW 10:12:55 20° WSW visible
29 Jul 5.6 07:53:34 10° E 07:54:38 11° E 07:54:52 11° E visible
29 Jul 3.0 09:28:52 10° N 09:33:52 61° WNW 09:35:01 48° SW visible
30 Jul 3.5 08:51:33 10° NNE 08:56:30 52° E 08:57:06 49° SE visible
30 Jul 4.9 10:32:30 10° NW 10:34:57 14° WNW 10:37:15 10° W visible
31 Jul 5.0 08:15:14 10° NE 08:18:58 21° E 08:19:12 21° E visible
31 Jul 3.8 09:53:24 10° N 09:57:55 33° WNW 09:59:21 28° WSW visible
01 Aug 2.8 09:15:35 10° N 09:20:40 84° WNW 09:21:27 65° SSW visible
